Location: Melbourne
(37.8666°S, 145.1333°E)
Time: 16:18:48
(UTC+10:00)

Hubble Space Telescope - Visible Passes

Search period start: 02 August 2015 00:00
Search period end: 12 August 2015 00:00
Orbit: 541 x 545 km, 28.5° (Epoch: 31 July)

Date Brightness Start Highest point End Pass type
(mag) Time Alt. Az. Time Alt. Az. Time Alt. Az.
08 Aug 3.6 06:09:41 10° N 06:10:52 11° NNE 06:12:09 10° NE visible
09 Aug 3.4 05:59:51 10° NNW 06:01:52 13° NNE 06:03:57 10° NE visible
10 Aug 3.3 05:50:23 10° NNW 05:52:52 15° NNE 05:55:25 10° NE visible
11 Aug 3.1 05:41:15 11° NNW 05:43:53 18° NNE 05:46:44 10° NE visible
